Hourly Data Report for November 30, 2019

PINAWA
MANITOBA
Current Station Operator: ECCC - MSC

50°10'38.020" N
96°03'53.000" W
268.00 m
503B1ER
71448
WEA

Download Data

Hourly Data (November 2019)
Hourly Data Report for November 30, 2019
TIME
LST
Temp Definition
°C
Dew Point Definition
°C
Rel Hum Definition
%
Precip. Amount Definition
mm

Wind Dir Definition
10's deg

Wind Spd Definition
km/h
Visibility Definition
km
Stn Press Definition
kPa
Hmdx Definition


Wind Chill Definition


Weather Definition


00:00 -1.6 LegendMM LegendMM 0.0 11 8   98.94   -5 LegendNANA
01:00 -1.7 LegendMM LegendMM 0.0 9 8   98.91   -5 LegendNANA
02:00 -1.8 LegendMM LegendMM 0.0 9 11   98.89   -6 LegendNANA
03:00 -1.8 LegendMM LegendMM 0.0 11 12   98.87   -6 LegendNANA
04:00 -1.8 LegendMM LegendMM 0.0 10 12   98.83   -6 LegendNANA
05:00 -1.9 LegendMM LegendMM 0.0 10 13   98.77   -6 LegendNANA
06:00 -2.1 LegendMM LegendMM 0.0 10 11   98.74   -6 LegendNANA
07:00 -2.4 LegendMM LegendMM 0.0 10 10   98.70   -6 LegendNANA
08:00 -2.8 LegendMM LegendMM 0.0 8 13   98.70   -7 LegendNANA
09:00 -3.1 LegendMM LegendMM 0.0 9 11   98.69   -7 LegendNANA
10:00 -3.2 LegendMM LegendMM 0.0 9 15   98.64   -8 LegendNANA
11:00 -2.2 LegendMM LegendMM 0.0 7 10   98.60   -6 LegendNANA
12:00 -1.5 LegendMM LegendMM 0.0 6 10   98.51   -5 LegendNANA
13:00 -0.6 LegendMM LegendMM 0.0 5 13   98.42   -5 LegendNANA
14:00 -0.3 LegendMM LegendMM 0.0 6 13   98.40   -4 LegendNANA
15:00 -0.4 LegendMM LegendMM 0.0 8 12   98.43   -4 LegendNANA
16:00 -1.0 LegendMM LegendMM 0.0 6 15   98.44   -6 LegendNANA
17:00 -2.0 LegendMM LegendMM 0.0 5 10   98.47   -6 LegendNANA
18:00 -3.1 LegendMM LegendMM 0.0 5 11   98.47   -7 LegendNANA
19:00 -4.1 LegendMM LegendMM 0.0 4 9   98.48   -8 LegendNANA
20:00 -5.1 LegendMM LegendMM 0.0 4 9   98.46   -9 LegendNANA
21:00 -6.0 LegendMM LegendMM 0.0 3 8   98.46   -10 LegendNANA
22:00 -7.0 LegendMM LegendMM 0.0 2 6   98.47   -10 LegendNANA
23:00 -7.6 LegendMM LegendMM 0.0 2 7   98.47   -11 LegendNANA

Notes on Data Quality.

Legend

  • E = Estimated
  • M = Missing
  • NA = Not Available*
  • [empty] = Indicates an unobserved value
Date modified: